User: anonymous   Login
Location: Bois de la Silve
(44.4667°N, 6.7833°E)
Time: 10:13:45
(UTC+00:00)
Language:

AQUA - Orbit

View from above orbital plane
View from above orbital plane
View from above satellite
View from above satellite

Ground track
Ground track

The orbit data is extracted from the following two-line orbital elements,

1 27424U 02022A   20271.86339387 +.00000097 +00000-0 +31646-4 0  9994
2 27424 098.1972 211.0034 0002544 053.1409 012.4156 14.57116415978788
Epoch (UTC): 27 September 2020 20:43:17
Eccentricity: 0.0002544
inclination: 98.1972°
perigee height: 701 km
apogee height: 704 km
right ascension of ascending node: 211.0034°
argument of perigee: 53.1409°
revolutions per day: 14.57116415
mean anomaly at epoch: 12.4156°
orbit number at epoch: 97878

The dashed part of the orbit path shows where the satellite is in the earth's shadow,  

DLR